Location: Bartshausen
(51.8454°N, 9.8167°E)
Time: 01:22:53
(UTC+00:00)

ACS3 Solar Sail - Pass Details

Date: 08 November 2025
Orbit: 887 x 1001 km, 97.3° (Epoch: 13 December)

Event Time Altitude Azimuth Distance (km) Brightness Sun altitude
Rises 05:20:37 0° 3° (N) 3,518 4.6 -10.6°
Reaches altitude 10° 05:24:34 10° 335° (NNW) 2,587 3.7 -10.0°
Maximum altitude 05:26:48 12° 312° (NW) 2,420 3.3 -9.7°
Enters shadow 05:28:24 11° 295° (WNW) 2,517 3.3 -9.4°
